DG1ROH Weather Reports


time (UTC)temp
C
wind
direction
speed
KPH
gust
KPH
rain 1hr
cm
rain 24hr
cm
rain mn
cm
humidity
%
barometer
mb
20260507172315 10 177 0.0 1.6 0.00 0.00 0.00 85 1016.0
20260507172113 10 177 0.0 1.6 0.00 0.00 0.00 85 1015.9
20260507171913 10 177 0.0 1.6 0.00 0.00 0.00 85 1015.9
20260507171711 10 177 0.0 1.6 0.00 0.00 0.00 85 1015.9
20260507171509 10 177 0.0 1.6 0.00 0.00 0.00 85 1015.9
20260507171309 10 177 0.0 1.6 0.00 0.00 0.00 85 1015.9
20260507171109 10 177 0.0 0.0 0.00 0.00 0.00 85 1015.9
20260507170910 10 177 0.0 1.6 0.00 0.00 0.00 84 1015.8
20260507170705 10 177 0.0 1.6 0.00 0.00 0.00 84 1015.9
20260507170505 10 177 0.0 1.6 0.00 0.00 0.00 84 1015.8
20260507170304 10 177 0.0 1.6 0.00 0.00 0.00 84 1015.8
20260507170118 10 177 0.0 1.6 0.00 0.00 0.00 84 1015.8
20260507165905 10 177 0.0 1.6 0.00 0.00 0.00 84 1015.8
20260507165506 10 177 0.0 1.6 0.00 0.00 0.00 84 1015.8
20260507165307 10 177 0.0 1.6 0.00 0.00 0.00 84 1015.8
20260507165105 10 177 0.0 0.0 0.00 0.00 0.00 84 1015.7
20260507164905 10 177 0.0 0.0 0.00 0.00 0.00 84 1015.7
20260507164705 10 177 0.0 0.0 0.00 0.00 0.00 84 1015.7
20260507164457 10 177 0.0 0.0 0.00 0.00 0.00 84 1015.7
20260507164257 10 177 0.0 0.0 0.00 0.00 0.00 84 1015.7
20260507164057 10 177 0.0 0.0 0.00 0.00 0.00 84 1015.6
20260507163855 10 177 0.0 0.0 0.00 0.00 0.00 84 1015.7
20260507163653 10 177 0.0 0.0 0.00 0.00 0.00 83 1015.6
20260507163455 10 177 0.0 0.0 0.00 0.00 0.00 83 1015.6
20260507163253 10 177 0.0 0.0 0.00 0.00 0.00 82 1015.7
20260507163051 10 177 0.0 0.0 0.00 0.00 0.00 82 1015.6
20260507162849 10 177 0.0 1.6 0.00 0.00 0.00 81 1015.6
20260507162648 10 177 0.0 1.6 0.00 0.00 0.00 81 1015.5
20260507162449 10 177 0.0 1.6 0.00 0.00 0.00 80 1015.6
20260507162243 10 177 0.0 1.6 0.00 0.00 0.00 80 1015.5
20260507162041 10 177 0.0 1.6 0.00 0.00 0.00 79 1015.6
20260507161839 10 177 0.0 3.2 0.00 0.00 0.00 80 1015.6
20260507161637 11 177 0.0 3.2 0.00 0.00 0.00 80 1015.5
20260507161440 11 177 1.6 3.2 0.00 0.00 0.00 78 1015.5
20260507161238 11 177 1.6 3.2 0.00 0.00 0.00 79 1015.5
20260507161036 11 177 1.6 3.2 0.00 0.00 0.00 79 1015.5
20260507160832 11 177 0.0 3.2 0.00 0.00 0.00 79 1015.5
20260507160631 11 177 0.0 3.2 0.00 0.00 0.00 79 1015.5
20260507160431 11 177 0.0 3.2 0.00 0.00 0.00 78 1015.4
20260507160229 11 177 0.0 4.8 0.00 0.00 0.00 78 1015.5
20260507160025 11 177 0.0 4.8 0.00 0.00 0.00 77 1015.4
20260507155826 11 177 0.0 4.8 0.00 0.00 0.00 76 1015.5
20260507155624 11 177 0.0 4.8 0.00 0.00 0.00 75 1015.4
20260507155423 11 180 0.0 4.8 0.00 0.00 0.00 76 1015.3
20260507155222 11 105 1.6 6.4 0.00 0.00 0.00 77 1015.3
20260507155023 11 105 1.6 6.4 0.00 0.00 0.00 76 1015.3
20260507154822 11 105 1.6 6.4 0.00 0.00 0.00 74 1015.3
20260507154621 11 111 1.6 6.4 0.00 0.00 0.00 75 1015.3
20260507154419 11 119 1.6 6.4 0.00 0.00 0.00 75 1015.4
20260507154217 11 96 1.6 4.8 0.00 0.00 0.00 76 1015.3
20260507154017 11 96 1.6 9.7 0.00 0.00 0.00 76 1015.3
20260507153817 11 98 1.6 9.7 0.00 0.00 0.00 76 1015.2
20260507153617 11 95 1.6 9.7 0.00 0.00 0.00 74 1015.2
20260507153415 11 53 1.6 9.7 0.00 0.00 0.00 73 1015.2
20260507153214 11 72 1.6 9.7 0.00 0.00 0.00 74 1015.2
20260507153009 11 61 3.2 11.3 0.00 0.00 0.00 72 1015.2
20260507152809 11 45 3.2 11.3 0.00 0.00 0.00 72 1015.2
20260507152609 11 41 3.2 11.3 0.00 0.00 0.00 71 1015.1
20260507152409 11 40 3.2 11.3 0.00 0.00 0.00 70 1015.1
20260507152209 11 61 3.2 11.3 0.00 0.00 0.00 70 1015.1
20260507152009 11 65 3.2 8.0 0.00 0.00 0.00 71 1015.1
20260507151809 11 346 3.2 8.0 0.00 0.00 0.00 71 1015.1
20260507151609 11 71 3.2 8.0 0.00 0.00 0.00 70 1015.1
20260507151414 11 342 3.2 8.0 0.00 0.00 0.00 71 1015.0
20260507151210 11 63 3.2 8.0 0.00 0.00 0.00 70 1015.0
20260507151011 11 63 3.2 8.0 0.00 0.00 0.00 71 1015.0
20260507150806 11 52 3.2 6.4 0.00 0.00 0.00 71 1015.0
20260507150605 11 60 3.2 9.7 0.00 0.00 0.00 72 1015.0
20260507150405 11 88 3.2 9.7 0.00 0.00 0.00 71 1015.0
20260507150207 11 32 4.8 11.3 0.00 0.00 0.00 71 1015.0
20260507150005 11 29 4.8 11.3 0.00 0.00 0.00 70 1015.0
20260507145806 11 26 4.8 11.3 0.00 0.00 0.00 70 1014.9
20260507145605 11 72 3.2 11.3 0.00 0.00 0.00 70 1014.9
20260507145404 11 42 3.2 11.3 0.00 0.00 0.00 70 1014.9
20260507145205 11 63 3.2 8.0 0.00 0.00 0.00 71 1014.9
20260507145005 12 44 1.6 8.0 0.00 0.00 0.00 70 1014.9
20260507144806 12 107 1.6 8.0 0.00 0.00 0.00 71 1014.9
20260507144605 12 81 3.2 8.0 0.00 0.00 0.00 72 1014.8
20260507144405 12 49 3.2 8.0 0.00 0.00 0.00 71 1014.9
20260507144205 12 51 3.2 8.0 0.00 0.00 0.00 73 1014.9
20260507144004 11 54 3.2 8.0 0.00 0.00 0.00 72 1014.9
20260507143805 11 22 3.2 9.7 0.00 0.00 0.00 71 1014.8
20260507143605 11 69 3.2 9.7 0.00 0.00 0.00 71 1014.8
20260507143405 11 17 3.2 9.7 0.00 0.00 0.00 71 1014.8
20260507143204 11 59 3.2 14.5 0.00 0.00 0.00 72 1014.8
20260507143005 11 69 4.8 14.5 0.00 0.00 0.00 72 1014.8
20260507142805 11 44 4.8 14.5 0.00 0.00 0.00 70 1014.8
20260507142605 11 58 4.8 14.5 0.00 0.00 0.00 70 1014.7
20260507142404 11 71 4.8 14.5 0.00 0.00 0.00 70 1014.7
20260507142204 11 62 4.8 14.5 0.00 0.00 0.00 70 1014.8
20260507142005 11 30 4.8 14.5 0.00 0.00 0.00 70 1014.7
20260507141804 11 69 3.2 12.9 0.00 0.00 0.00 71 1014.7
20260507141604 11 33 3.2 9.7 0.00 0.00 0.00 73 1014.8
20260507141405 11 5 3.2 9.7 0.00 0.00 0.00 71 1014.8
20260507141205 11 97 3.2 9.7 0.00 0.00 0.00 71 1014.7
20260507141004 11 97 3.2 11.3 0.00 0.00 0.00 72 1014.7
20260507140805 11 57 3.2 14.5 0.00 0.00 0.00 72 1014.6
20260507140605 11 17 4.8 14.5 0.00 0.00 0.00 71 1014.7
20260507140404 11 331 4.8 14.5 0.00 0.00 0.00 71 1014.6
20260507140204 11 36 4.8 14.5 0.00 0.00 0.00 71 1014.6
20260507140005 11 56 4.8 14.5 0.00 0.00 0.00 72 1014.6
20260507135805 11 29 4.8 12.9 0.00 0.00 0.00 73 1014.6
20260507135605 11 61 4.8 12.9 0.00 0.00 0.00 73 1014.6
20260507135404 11 53 4.8 12.9 0.00 0.00 0.00 72 1014.6
20260507135204 11 65 4.8 12.9 0.00 0.00 0.00 71 1014.6
20260507135108 11 76 4.8 12.9 0.00 0.00 0.00 72 1014.6
20260507134605 11 33 3.2 12.9 0.00 0.00 0.00 71 1014.6
20260507134408 11 45 3.2 11.3 0.00 0.00 0.00 73 1014.6
20260507134204 11 55 3.2 14.5 0.00 0.00 0.00 73 1014.6
20260507134005 11 50 3.2 14.5 0.00 0.00 0.00 73 1014.6
20260507133804 11 54 3.2 14.5 0.00 0.00 0.00 73 1014.5
20260507133605 11 36 3.2 14.5 0.00 0.00 0.00 73 1014.6
20260507133405 11 28 3.2 14.5 0.00 0.00 0.00 72 1014.5
20260507133205 11 61 3.2 8.0 0.00 0.00 0.00 74 1014.6
20260507133004 11 72 3.2 11.3 0.00 0.00 0.00 75 1014.6
20260507132805 11 72 3.2 11.3 0.00 0.00 0.00 73 1014.6
20260507132605 11 355 3.2 14.5 0.00 0.00 0.00 73 1014.6
20260507132405 11 14 3.2 14.5 0.00 0.00 0.00 72 1014.6
20260507132207 11 13 3.2 14.5 0.00 0.00 0.00 74 1014.5
20260507132005 11 71 4.8 14.5 0.00 0.00 0.00 74 1014.5
20260507131804 11 9 4.8 16.1 0.00 0.00 0.00 75 1014.5
20260507131604 11 63 4.8 16.1 0.00 0.00 0.00 73 1014.6
20260507131404 11 28 4.8 16.1 0.00 0.00 0.00 75 1014.6
20260507131205 11 84 4.8 16.1 0.00 0.00 0.00 73 1014.5
20260507131004 11 65 4.8 16.1 0.00 0.00 0.00 74 1014.5
20260507130805 11 71 4.8 14.5 0.00 0.00 0.00 74 1014.5
20260507130605 11 86 4.8 14.5 0.00 0.00 0.00 75 1014.5
20260507130405 11 67 4.8 14.5 0.00 0.00 0.00 76 1014.5
20260507130205 11 5 4.8 12.9 0.00 0.00 0.00 76 1014.5
20260507130005 11 50 4.8 16.1 0.00 0.00 0.00 75 1014.4
20260507125805 11 36 4.8 16.1 0.00 0.00 0.00 76 1014.4
20260507125605 11 55 4.8 16.1 0.00 0.00 0.00 76 1014.4
20260507125404 11 351 4.8 16.1 0.00 0.00 0.00 76 1014.4
20260507125204 10 15 3.2 16.1 0.00 0.00 0.00 75 1014.4
20260507125005 11 58 3.2 11.3 0.00 0.00 0.00 76 1014.4
20260507124804 10 76 4.8 11.3 0.00 0.00 0.00 76 1014.4
20260507124604 10 330 4.8 11.3 0.00 0.00 0.00 76 1014.4
20260507124404 10 78 4.8 11.3 0.00 0.00 0.00 77 1014.3
20260507124204 10 13 4.8 11.3 0.00 0.00 0.00 76 1014.4
20260507124005 10 41 4.8 16.1 0.00 0.00 0.00 76 1014.3
20260507123807 10 131 4.8 16.1 0.00 0.00 0.00 75 1014.3
20260507123604 10 69 3.2 16.1 0.00 0.00 0.00 76 1014.4
20260507123405 10 63 4.8 16.1 0.00 0.00 0.00 75 1014.4
20260507123204 10 58 3.2 16.1 0.00 0.00 0.00 76 1014.4
20260507123005 10 56 4.8 14.5 0.00 0.00 0.00 77 1014.3
20260507122805 10 355 4.8 14.5 0.00 0.00 0.00 76 1014.3
20260507122604 10 59 4.8 14.5 0.00 0.00 0.00 76 1014.3
20260507122405 10 18 4.8 14.5 0.00 0.00 0.00 76 1014.3
20260507122205 10 13 4.8 14.5 0.00 0.00 0.00 77 1014.3
20260507122005 10 15 3.2 14.5 0.00 0.00 0.00 76 1014.4
20260507121805 10 318 3.2 14.5 0.00 0.00 0.00 77 1014.3
20260507121607 10 38 3.2 9.7 0.00 0.00 0.00 78 1014.3
20260507121404 10 59 3.2 9.7 0.00 0.00 0.00 78 1014.3
20260507121205 10 40 4.8 12.9 0.00 0.00 0.00 78 1014.2
20260507121004 10 52 6.4 20.9 0.00 0.00 0.00 77 1014.2
20260507120804 10 52 6.4 20.9 0.00 0.00 0.00 78 1014.3
20260507120602 10 42 6.4 20.9 0.00 0.00 0.00 77 1014.2
20260507120403 10 57 6.4 20.9 0.00 0.00 0.00 76 1014.3
20260507120203 10 78 6.4 20.9 0.00 0.00 0.00 76 1014.3
20260507120004 10 39 6.4 19.3 0.00 0.00 0.00 76 1014.3
20260507115802 10 5 6.4 19.3 0.00 0.00 0.00 75 1014.2
20260507115602 11 63 6.4 17.7 0.00 0.00 0.00 76 1014.2
20260507115402 11 11 6.4 17.7 0.00 0.00 0.00 77 1014.2
20260507115201 11 67 6.4 17.7 0.00 0.00 0.00 75 1014.2
20260507115002 11 21 6.4 17.7 0.00 0.00 0.00 74 1014.3
20260507114802 11 67 4.8 19.3 0.00 0.00 0.00 75 1014.1
20260507114601 11 26 4.8 19.3 0.00 0.00 0.00 75 1014.1
20260507114401 11 86 4.8 19.3 0.00 0.00 0.00 74 1014.2
20260507114201 11 355 4.8 19.3 0.00 0.00 0.00 75 1014.2
20260507114001 11 43 4.8 19.3 0.00 0.00 0.00 74 1014.2
20260507113802 11 79 4.8 12.9 0.00 0.00 0.00 76 1014.2
20260507113601 11 87 4.8 12.9 0.00 0.00 0.00 76 1014.1
20260507113402 11 51 4.8 22.5 0.00 0.00 0.00 76 1014.2
20260507113201 11 10 6.4 22.5 0.00 0.00 0.00 76 1014.1
20260507113001 11 94 4.8 22.5 0.00 0.00 0.00 76 1014.1
20260507112800 11 69 6.4 22.5 0.00 0.00 0.00 76 1014.1
20260507112600 11 48 6.4 22.5 0.00 0.00 0.00 76 1014.2
20260507112401 10 94 4.8 19.3 0.00 0.00 0.00 77 1014.2
20260507112201 10 350 6.4 19.3 0.00 0.00 0.00 79 1014.2
20260507112001 10 43 6.4 19.3 0.00 0.00 0.00 77 1014.1
20260507111801 10 46 4.8 19.3 0.00 0.00 0.00 77 1014.1
20260507111559 10 20 4.8 17.7 0.00 0.00 0.00 77 1014.2
20260507111355 10 51 4.8 17.7 0.00 0.00 0.00 76 1014.1
20260507111154 10 67 4.8 17.7 0.00 0.00 0.00 77 1014.2
20260507111006 10 43 4.8 14.5 0.00 0.00 0.00 79 1014.2
20260507110755 10 73 4.8 16.1 0.00 0.00 0.00 77 1014.2
20260507110555 10 66 4.8 16.1 0.00 0.00 0.00 78 1014.2
20260507110354 10 89 4.8 16.1 0.00 0.00 0.00 78 1014.2
20260507110154 10 69 4.8 16.1 0.00 0.00 0.00 79 1014.1
20260507105954 10 342 6.4 16.1 0.00 0.00 0.00 79 1014.1
20260507105752 10 19 6.4 19.3 0.00 0.00 0.00 78 1014.2
20260507105553 10 74 8.0 19.3 0.00 0.00 0.00 79 1014.1
20260507105352 9 90 6.4 19.3 0.00 0.00 0.00 79 1014.1
20260507105152 10 70 6.4 19.3 0.00 0.00 0.00 79 1014.2
20260507104952 10 88 6.4 19.3 0.00 0.00 0.00 77 1014.2
20260507104754 10 67 4.8 19.3 0.00 0.00 0.00 77 1014.1
20260507104552 10 55 3.2 19.3 0.00 0.00 0.00 78 1014.2
20260507104352 10 74 4.8 17.7 0.00 0.00 0.00 77 1014.1
20260507104151 10 77 4.8 17.7 0.00 0.00 0.00 77 1014.0
20260507103946 10 41 4.8 17.7 0.00 0.00 0.00 79 1014.1
20260507103746 10 129 4.8 17.7 0.00 0.00 0.00 80 1014.1
20260507103548 10 63 4.8 17.7 0.00 0.00 0.00 78 1014.1
20260507103346 10 340 4.8 12.9 0.00 0.00 0.00 79 1014.1
20260507103146 10 66 4.8 14.5 0.00 0.00 0.00 80 1014.1
20260507102946 9 0 4.8 14.5 0.00 0.00 0.00 81 1014.1
20260507102746 9 75 4.8 14.5 0.00 0.00 0.00 80 1014.0
20260507102547 9 51 4.8 19.3 0.00 0.00 0.00 80 1014.0
20260507102346 9 48 4.8 19.3 0.00 0.00 0.00 80 1014.0
20260507102146 9 38 4.8 19.3 0.00 0.00 0.00 81 1014.0
20260507101945 9 175 4.8 19.3 0.00 0.00 0.00 80 1013.9
20260507101740 9 40 4.8 19.3 0.00 0.00 0.00 80 1014.0
20260507101541 9 54 4.8 14.5 0.00 0.00 0.00 81 1014.0
20260507101340 9 65 4.8 14.5 0.00 0.00 0.00 81 1013.9
20260507101140 9 45 4.8 14.5 0.00 0.00 0.00 81 1013.9
20260507100941 9 69 4.8 14.5 0.00 0.00 0.00 82 1013.9
20260507100740 8 64 4.8 12.9 0.00 0.00 0.00 81 1013.9
20260507100541 8 54 4.8 12.9 0.00 0.00 0.00 81 1013.9
20260507100341 8 61 4.8 12.9 0.00 0.00 0.00 81 1013.8
20260507100140 8 67 3.2 11.3 0.00 0.00 0.00 81 1013.8
20260507095940 8 67 3.2 12.9 0.00 0.00 0.00 82 1013.8
20260507095740 8 43 4.8 12.9 0.00 0.00 0.00 83 1013.8
20260507095540 8 351 3.2 12.9 0.00 0.00 0.00 83 1013.8
20260507095340 8 69 3.2 12.9 0.00 0.00 0.00 83 1013.7
20260507095139 8 57 4.8 17.7 0.00 0.00 0.00 83 1013.7
20260507094936 8 82 4.8 17.7 0.00 0.00 0.00 82 1013.7
20260507094735 8 34 3.2 17.7 0.00 0.00 0.00 82 1013.8
20260507094532 8 53 3.2 17.7 0.00 0.00 0.00 82 1013.7
20260507094333 8 36 3.2 17.7 0.00 0.00 0.00 82 1013.8
20260507094130 8 76 3.2 14.5 0.00 0.03 0.00 84 1013.8
20260507093934 8 90 3.2 8.0 0.00 0.03 0.00 83 1013.7
20260507093734 8 100 3.2 12.9 0.00 0.03 0.00 83 1013.7
20260507093533 8 61 4.8 12.9 0.00 0.03 0.00 83 1013.6
20260507093329 8 52 3.2 12.9 0.00 0.03 0.00 83 1013.6
20260507093128 8 74 4.8 12.9 0.00 0.03 0.00 83 1013.6
20260507092926 8 350 4.8 12.9 0.00 0.03 0.00 83 1013.7
20260507092726 8 26 4.8 11.3 0.00 0.03 0.00 83 1013.6
20260507092526 8 86 3.2 11.3 0.00 0.05 0.00 84 1013.6
20260507092327 8 111 4.8 16.1 0.00 0.05 0.00 83 1013.5
20260507092127 8 46 6.4 16.1 0.00 0.05 0.00 84 1013.5
20260507091926 7 20 4.8 16.1 0.00 0.05 0.00 84 1013.5
20260507091727 7 36 6.4 16.1 0.00 0.05 0.00 84 1013.5
20260507091525 7 61 4.8 16.1 0.00 0.05 0.00 84 1013.4
20260507091323 7 73 4.8 14.5 0.00 0.08 0.00 84 1013.5
20260507091122 7 32 4.8 16.1 0.00 0.08 0.00 84 1013.5
20260507090923 7 46 6.4 17.7 0.00 0.08 0.00 84 1013.4
20260507090722 7 75 6.4 17.7 0.00 0.10 0.00 84 1013.4
20260507090521 7 57 6.4 17.7 0.00 0.10 0.00 84 1013.4
20260507090320 7 40 8.0 17.7 0.00 0.10 0.00 84 1013.3
20260507090121 7 76 6.4 17.7 0.00 0.13 0.00 85 1013.3
20260507085921 7 42 4.8 16.1 0.00 0.13 0.00 85 1013.2
20260507085720 7 9 6.4 16.1 0.00 0.15 0.00 85 1013.1
20260507085521 7 90 4.8 16.1 0.00 0.15 0.00 85 1013.2
20260507085319 7 76 4.8 12.9 0.00 0.18 0.00 86 1013.1
20260507085118 7 67 4.8 12.9 0.00 0.20 0.00 86 1013.2
20260507084916 7 54 4.8 12.9 0.00 0.23 0.00 86 1013.1
20260507084716 7 33 4.8 14.5 0.00 0.23 0.00 86 1013.0
20260507084516 7 53 4.8 14.5 0.00 0.23 0.00 86 1013.1
20260507084316 7 0 4.8 14.5 0.00 0.25 0.00 86 1013.1
20260507084116 7 65 4.8 14.5 0.00 0.28 0.00 86 1013.0
20260507083914 7 24 4.8 14.5 0.00 0.30 0.00 86 1013.0
20260507083714 7 72 4.8 16.1 0.00 0.33 0.00 87 1013.0
20260507083515 7 58 4.8 16.1 0.00 0.33 0.00 87 1013.0
20260507083314 7 116 4.8 16.1 0.00 0.33 0.00 87 1013.0
20260507083112 7 42 6.4 16.1 0.00 0.36 0.00 87 1012.9
20260507082912 7 34 4.8 16.1 0.00 0.38 0.00 86 1012.8
20260507082708 7 347 4.8 16.1 0.00 0.38 0.00 86 1012.9
20260507082508 7 71 6.4 16.1 0.00 0.41 0.00 87 1012.9
20260507082308 7 63 6.4 16.1 0.00 0.41 0.00 87 1012.9
20260507082108 7 57 4.8 16.1 0.00 0.43 0.00 87 1012.8
20260507081909 7 42 6.4 16.1 0.00 0.43 0.00 87 1012.9
20260507081708 7 26 4.8 16.1 0.00 0.43 0.00 87 1012.8
20260507081508 7 46 4.8 16.1 0.00 0.43 0.00 87 1012.8
20260507081308 7 48 3.2 14.5 0.00 0.46 0.00 87 1012.8
20260507081111 7 11 4.8 14.5 0.00 0.48 0.00 87 1012.8
20260507080910 7 5 4.8 14.5 0.00 0.48 0.00 87 1012.7
20260507080711 7 9 6.4 14.5 0.00 0.51 0.00 86 1012.6
20260507080506 7 48 6.4 14.5 0.00 0.51 0.00 86 1012.6
20260507080308 7 51 6.4 14.5 0.00 0.53 0.00 86 1012.5
20260507080108 7 13 6.4 14.5 0.00 0.56 0.00 86 1012.5
20260507075906 7 5 4.8 14.5 0.00 0.58 0.00 86 1012.5
20260507075707 7 102 4.8 14.5 0.00 0.58 0.00 86 1012.5
20260507075505 7 67 4.8 11.3 0.00 0.61 0.00 86 1012.4
20260507075307 7 46 4.8 14.5 0.00 0.61 0.00 86 1012.5
20260507075105 7 29 4.8 14.5 0.00 0.61 0.00 85 1012.4
20260507074904 7 60 4.8 14.5 0.00 0.64 0.00 85 1012.3
20260507074706 7 351 3.2 14.5 0.00 0.64 0.00 85 1012.4
20260507074504 8 45 3.2 14.5 0.00 0.66 0.00 84 1012.4
20260507074302 8 355 3.2 14.5 0.00 0.66 0.00 84 1012.4
20260507074105 8 19 3.2 14.5 0.00 0.69 0.00 84 1012.4
20260507073902 8 348 4.8 14.5 0.00 0.69 0.00 84 1012.3
20260507073703 8 67 4.8 14.5 0.00 0.71 0.00 84 1012.2
20260507073501 8 69 4.8 14.5 0.00 0.71 0.00 83 1012.2
20260507073301 8 88 4.8 14.5 0.00 0.71 0.00 84 1012.2
20260507073059 8 65 4.8 14.5 0.00 0.74 0.00 84 1012.1
20260507072900 8 69 4.8 14.5 0.00 0.74 0.00 84 1012.1
20260507072700 8 152 4.8 14.5 0.00 0.76 0.00 84 1012.1
20260507072500 8 60 4.8 16.1 0.00 0.79 0.00 85 1012.0
20260507072300 8 133 4.8 16.1 0.00 0.79 0.00 85 1012.0
20260507072100 8 31 4.8 16.1 0.00 0.79 0.00 84 1012.0
20260507071900 8 57 4.8 17.7 0.00 0.81 0.00 84 1012.1
20260507071700 8 68 4.8 17.7 0.00 0.84 0.00 84 1012.1
20260507071500 7 63 6.4 17.7 0.00 0.84 0.00 84 1012.1
20260507071300 7 59 6.4 17.7 0.00 0.86 0.00 85 1012.1
20260507071101 7 57 6.4 17.7 0.00 0.89 0.00 84 1012.1
20260507070858 7 82 6.4 16.1 0.00 0.89 0.00 84 1012.1
20260507070659 7 36 6.4 16.1 0.00 0.89 0.00 84 1012.1
20260507070458 7 60 4.8 16.1 0.00 0.91 0.00 84 1012.1
20260507070256 7 32 4.8 16.1 0.00 0.91 0.00 84 1012.1
20260507070056 7 355 4.8 16.1 0.00 0.91 0.00 84 1012.0
20260507065856 7 74 3.2 16.1 0.00 0.94 0.00 84 1012.0
20260507065656 7 81 3.2 16.1 0.00 0.94 0.00 85 1011.9
20260507065456 7 51 4.8 16.1 0.00 0.94 0.00 84 1011.9
20260507065256 7 132 4.8 16.1 0.00 0.94 0.00 84 1011.9
20260507065054 7 11 3.2 14.5 0.00 0.94 0.00 85 1012.0
20260507064853 7 175 4.8 14.5 0.00 0.94 0.00 85 1011.9
20260507064654 7 51 3.2 14.5 0.00 0.97 0.00 85 1011.9
20260507064454 7 59 3.2 14.5 0.00 0.97 0.00 85 1012.0
20260507064252 7 326 3.2 14.5 0.00 0.97 0.00 85 1011.9
20260507064052 7 39 3.2 11.3 0.00 0.97 0.00 85 1011.9
20260507063852 7 75 3.2 11.3 0.00 0.97 0.00 85 1011.8
20260507063650 7 32 3.2 14.5 0.00 0.97 0.00 85 1011.8
20260507063450 7 26 3.2 14.5 0.00 0.97 0.00 85 1011.9
20260507063248 7 63 4.8 14.5 0.00 0.97 0.00 85 1011.8
20260507063048 7 64 4.8 19.3 0.00 0.97 0.00 85 1011.9
20260507062847 7 67 4.8 19.3 0.00 0.97 0.00 85 1011.9
20260507062649 7 319 4.8 19.3 0.00 0.97 0.00 85 1011.8
20260507062444 7 94 4.8 19.3 0.00 0.97 0.00 85 1011.8
20260507062244 7 86 4.8 19.3 0.00 0.99 0.00 85 1011.8
20260507062043 7 27 4.8 16.1 0.00 0.99 0.00 85 1011.7
20260507061844 7 42 4.8 19.3 0.00 0.99 0.00 85 1011.7
20260507061644 7 76 4.8 19.3 0.00 0.99 0.00 85 1011.7
20260507061444 7 40 4.8 19.3 0.00 0.99 0.00 85 1011.7
20260507061244 7 57 4.8 19.3 0.00 0.99 0.00 85 1011.7
20260507061044 7 64 4.8 19.3 0.00 0.99 0.00 85 1011.7
20260507060848 7 350 4.8 16.1 0.00 0.99 0.00 85 1011.6
20260507060648 7 0 4.8 20.9 0.00 0.99 0.00 85 1011.7
20260507060446 7 58 4.8 20.9 0.00 0.99 0.00 85 1011.7
20260507060244 7 30 6.4 20.9 0.00 1.02 0.00 85 1011.6
20260507060055 7 87 6.4 20.9 0.00 1.02 0.00 85 1011.6
20260507055842 7 58 4.8 20.9 0.00 1.02 0.00 85 1011.6
20260507055641 7 113 4.8 14.5 0.00 1.02 0.00 86 1011.5
20260507055440 7 332 4.8 14.5 0.00 1.02 0.00 85 1011.6
20260507055238 7 32 4.8 14.5 0.00 1.02 0.00 86 1011.6
20260507055037 7 90 4.8 14.5 0.00 1.02 0.00 86 1011.5
20260507054838 7 39 4.8 14.5 0.00 1.02 0.00 86 1011.5
20260507054637 7 49 4.8 14.5 0.00 1.04 0.00 86 1011.4
20260507054434 7 53 4.8 14.5 0.00 1.04 0.00 86 1011.3
20260507054234 7 75 4.8 14.5 0.00 1.04 0.00 86 1011.4
20260507054034 7 95 4.8 14.5 0.00 1.04 0.00 86 1011.3
20260507053834 7 76 4.8 14.5 0.00 1.04 0.00 86 1011.3
20260507053632 7 53 4.8 14.5 0.00 1.04 0.00 86 1011.3
20260507053435 7 41 4.8 16.1 0.00 1.04 0.00 86 1011.2
20260507053232 7 50 4.8 16.1 0.00 1.04 0.00 86 1011.1
20260507053030 7 92 4.8 20.9 0.00 1.04 0.00 86 1011.2
20260507052830 7 23 6.4 20.9 0.00 1.04 0.00 86 1011.3
20260507052629 7 80 6.4 20.9 0.00 1.07 0.00 86 1011.3
20260507052430 7 338 6.4 20.9 0.00 1.07 0.00 86 1011.3
20260507052230 7 80 6.4 20.9 0.00 1.07 0.00 86 1011.3
20260507052030 7 67 4.8 20.9 0.00 1.07 0.00 86 1011.3
20260507051830 7 17 4.8 14.5 0.00 1.07 0.00 86 1011.3
20260507051630 7 54 4.8 16.1 0.00 1.09 0.00 86 1011.2
20260507051429 7 71 6.4 16.1 0.00 1.09 0.00 86 1011.2
20260507051230 7 0 6.4 16.1 0.00 1.09 0.00 86 1011.3
20260507051030 7 61 6.4 16.1 0.00 1.09 0.00 86 1011.3
20260507050829 7 65 4.8 17.7 0.00 1.09 0.00 86 1011.2
20260507050629 7 324 6.4 17.7 0.00 1.09 0.00 86 1011.2
20260507050429 7 59 4.8 17.7 0.00 1.09 0.00 86 1011.2
20260507050229 7 67 4.8 17.7 0.00 1.12 0.00 87 1011.1
20260507050030 7 33 4.8 17.7 0.00 1.12 0.00 86 1011.0
20260507045829 7 83 4.8 16.1 0.00 1.12 0.00 87 1011.0
20260507045629 7 36 4.8 14.5 0.00 1.14 0.00 87 1011.0
20260507045426 7 34 4.8 14.5 0.00 1.14 0.00 87 1010.9
20260507045226 7 74 3.2 14.5 0.00 1.14 0.00 87 1011.0
20260507045024 7 92 4.8 14.5 0.00 1.17 0.00 87 1011.0
20260507044824 7 36 4.8 14.5 0.00 1.17 0.00 87 1011.0
20260507044623 7 55 3.2 12.9 0.00 1.17 0.00 88 1010.9
20260507044424 7 71 3.2 12.9 0.00 1.17 0.00 88 1010.8
20260507044223 7 48 3.2 12.9 0.00 1.17 0.00 88 1010.8
20260507044024 7 59 3.2 12.9 0.00 1.19 0.00 88 1010.9
20260507043824 7 24 3.2 14.5 0.00 1.19 0.00 88 1010.8
20260507043622 7 74 4.8 16.1 0.00 1.22 0.00 88 1010.9
20260507043422 7 28 3.2 16.1 0.00 1.24 0.00 88 1010.9
20260507043220 6 18 3.2 16.1 0.00 1.24 0.00 88 1010.8
20260507043019 6 99 3.2 16.1 0.00 1.27 0.00 88 1010.8
20260507042820 6 39 1.6 16.1 0.00 1.27 0.00 88 1010.8
20260507042620 7 68 1.6 9.7 0.00 1.27 0.00 89 1010.8
20260507042419 7 81 1.6 9.7 0.00 1.27 0.00 89 1010.7
20260507042220 6 81 3.2 9.7 0.00 1.27 0.00 89 1010.7
20260507042016 6 81 3.2 16.1 0.00 1.30 0.00 88 1010.7
20260507041816 6 100 3.2 16.1 0.00 1.30 0.00 88 1010.6
20260507041615 6 75 4.8 16.1 0.00 1.30 0.00 88 1010.6
20260507041416 6 78 4.8 16.1 0.00 1.30 0.00 88 1010.5
20260507041215 6 55 4.8 16.1 0.00 1.32 0.00 89 1010.6
20260507041016 6 336 3.2 14.5 0.00 1.32 0.00 89 1010.5
20260507040816 6 74 4.8 14.5 0.00 1.32 0.00 89 1010.5
20260507040615 6 54 4.8 16.1 0.00 1.35 0.00 89 1010.3
20260507040219 6 60 4.8 16.1 0.00 1.37 0.00 89 1010.4
20260507040016 6 57 3.2 16.1 0.00 1.40 0.00 89 1010.3
20260507035815 6 57 3.2 16.1 0.00 1.42 0.00 89 1010.3
20260507035613 6 62 3.2 9.7 0.00 1.45 0.00 89 1010.3
20260507035414 6 88 3.2 9.7 0.00 1.45 0.00 89 1010.3
20260507035214 6 31 3.2 11.3 0.00 1.45 0.00 89 1010.2
20260507035014 6 66 3.2 11.3 0.00 1.47 0.00 89 1010.2
20260507034813 6 42 1.6 11.3 0.00 1.50 0.00 89 1010.2
20260507034614 6 40 3.2 11.3 0.00 1.50 0.00 88 1010.2
20260507034413 6 76 3.2 11.3 0.00 1.52 0.00 89 1010.2
20260507034214 6 338 3.2 9.7 0.00 1.55 0.00 89 1010.2
20260507034013 6 29 3.2 9.7 0.00 1.55 0.00 88 1010.2
20260507033814 6 31 3.2 9.7 0.00 1.57 0.00 88 1010.2
20260507033614 6 44 4.8 12.9 0.00 1.57 0.00 88 1010.1
20260507033418 6 31 4.8 12.9 0.00 1.60 0.00 88 1010.1
20260507033216 6 67 4.8 12.9 0.00 1.63 0.00 88 1010.1
20260507033014 6 55 4.8 12.9 0.00 1.63 0.00 88 1010.1
20260507032813 6 34 4.8 12.9 0.00 1.65 0.00 88 1010.1
20260507032614 6 35 3.2 12.9 0.00 1.65 0.00 88 1010.0
20260507032413 6 53 3.2 12.9 0.00 1.65 0.00 88 1010.1
20260507032214 6 32 3.2 12.9 0.00 1.68 0.00 88 1010.0
20260507032013 6 17 3.2 12.9 0.00 1.70 0.00 88 1010.2
20260507031814 6 79 3.2 12.9 0.00 1.73 0.00 88 1010.1
20260507031614 6 46 3.2 12.9 0.00 1.75 0.00 88 1010.1
20260507031414 6 75 1.6 8.0 0.00 1.75 0.00 88 1010.1
20260507031214 6 105 1.6 8.0 0.00 1.78 0.00 88 1010.1
20260507031013 6 39 3.2 12.9 0.00 1.80 0.00 88 1010.1
20260507030813 7 53 3.2 12.9 0.00 1.83 0.00 88 1010.1
20260507030614 6 304 3.2 12.9 0.00 1.85 0.00 88 1010.1
20260507030414 6 49 4.8 12.9 0.00 1.88 0.00 88 1010.1
20260507030214 6 45 4.8 12.9 0.00 1.91 0.00 88 1010.1
20260507030013 6 75 4.8 11.3 0.00 1.93 0.00 88 1010.0
20260507025814 6 44 4.8 11.3 0.00 1.93 0.00 88 1010.0
20260507025614 6 60 4.8 14.5 0.00 1.96 0.00 88 1010.0
20260507025413 7 36 4.8 14.5 0.00 1.96 0.00 88 1010.0
20260507025214 7 70 3.2 14.5 0.00 1.98 0.00 88 1009.9
20260507025013 7 49 3.2 14.5 0.00 2.01 0.00 88 1009.9
20260507024814 7 55 3.2 14.5 0.00 2.01 0.00 88 1010.0
20260507024613 7 79 3.2 8.0 0.00 2.03 0.00 88 1009.9
20260507024413 7 32 3.2 8.0 0.00 2.03 0.00 88 1009.9
20260507024213 7 5 3.2 8.0 0.00 2.03 0.00 88 1010.0
20260507024013 7 5 3.2 8.0 0.00 2.06 0.00 88 1009.9
20260507023814 7 49 3.2 8.0 0.00 2.08 0.00 88 1009.9
20260507023614 7 0 3.2 8.0 0.00 2.08 0.00 88 1009.9
20260507023413 7 346 3.2 8.0 0.00 2.11 0.00 87 1010.0
20260507023214 7 57 3.2 8.0 0.00 2.11 0.00 87 1009.9
20260507023013 7 89 3.2 8.0 0.00 2.11 0.00 87 1009.9
20260507022814 7 62 4.8 19.3 0.00 2.13 0.00 87 1009.9
20260507022613 7 59 4.8 19.3 0.00 2.13 0.00 87 1009.9
20260507022414 7 59 4.8 19.3 0.00 2.16 0.00 87 1009.9
20260507022214 7 49 4.8 19.3 0.00 2.16 0.00 87 1010.0
20260507022013 7 18 4.8 19.3 0.00 2.18 0.00 87 1009.9
20260507021816 7 301 4.8 14.5 0.00 2.18 0.00 87 1009.9
20260507021616 7 333 4.8 14.5 0.00 2.21 0.00 87 1010.0
20260507021416 7 355 4.8 12.9 0.00 2.21 0.00 87 1010.0
20260507021216 7 61 4.8 12.9 0.00 2.21 0.00 87 1009.9
20260507021016 7 42 4.8 12.9 0.00 2.21 0.00 87 1009.9
20260507020817 7 49 3.2 11.3 0.00 2.21 0.00 87 1009.9
20260507020615 7 28 3.2 8.0 0.00 2.24 0.00 88 1009.9
20260507020426 7 15 3.2 9.7 0.00 2.24 0.00 88 1009.8
20260507020212 7 56 3.2 9.7 0.00 2.24 0.00 88 1009.9
20260507020011 7 0 3.2 9.7 0.00 2.26 0.00 88 1009.8
20260507015809 7 30 3.2 9.7 0.00 2.26 0.00 88 1009.9
20260507015607 7 44 3.2 9.7 0.00 2.29 0.00 88 1009.9
20260507015404 7 28 3.2 8.0 0.00 2.29 0.00 88 1009.9
20260507015204 7 35 1.6 8.0 0.00 2.31 0.00 88 1009.9
20260507015004 7 42 3.2 8.0 0.00 2.31 0.00 88 1009.9
20260507014803 7 42 3.2 8.0 0.00 2.31 0.00 88 1009.9
20260507014602 7 54 3.2 8.0 0.00 2.31 0.00 88 1010.0
20260507014413 7 54 3.2 8.0 0.00 2.31 0.00 88 1009.8
20260507014200 7 39 3.2 8.0 0.00 2.31 0.00 87 1009.8
20260507014000 7 15 3.2 8.0 0.00 2.31 0.00 88 1009.8
20260507013755 7 48 3.2 9.7 0.00 2.34 0.00 87 1009.7
20260507013555 7 51 3.2 9.7 0.00 2.34 0.00 87 1009.8
20260507013350 7 61 3.2 9.7 0.00 2.34 0.00 87 1009.7
20260507013150 7 56 3.2 12.9 0.00 2.34 0.00 87 1009.6
20260507012947 7 55 3.2 12.9 0.00 2.36 0.00 87 1009.6
20260507012751 7 301 3.2 12.9 0.00 2.36 0.00 87 1009.6
20260507012546 7 344 3.2 12.9 0.00 2.36 0.00 87 1009.7
20260507012345 7 355 3.2 12.9 0.00 2.36 0.00 87 1009.7
20260507012146 7 22 3.2 12.9 0.00 2.36 0.00 87 1009.7
20260507011946 6 5 3.2 12.9 0.00 2.39 0.00 87 1009.7
20260507011745 7 18 3.2 12.9 0.00 2.39 0.00 87 1009.7
20260507011539 7 5 3.2 12.9 0.00 2.39 0.00 87 1009.7
20260507011339 7 5 3.2 12.9 0.00 2.39 0.00 87 1009.7
20260507011137 7 29 3.2 12.9 0.00 2.39 0.00 87 1009.6
20260507010935 7 25 3.2 12.9 0.00 2.39 0.00 87 1009.6
20260507010735 7 9 3.2 12.9 0.00 2.39 0.00 87 1009.5
20260507010536 7 79 4.8 14.5 0.00 2.39 0.00 87 1009.5
20260507010333 6 88 4.8 14.5 0.00 2.39 0.00 87 1009.5
20260507010133 6 345 4.8 14.5 0.00 2.39 0.00 87 1009.4
20260507005935 6 82 4.8 14.5 0.00 2.39 0.00 88 1009.4
20260507005733 6 34 4.8 14.5 0.00 2.39 0.00 88 1009.4
20260507005532 6 47 3.2 9.7 0.00 2.39 0.00 88 1009.4
20260507005334 6 350 3.2 9.7 0.00 2.39 0.00 88 1009.4
20260507005133 6 55 3.2 9.7 0.00 2.39 0.00 87 1009.4
20260507004932 6 49 3.2 9.7 0.00 2.39 0.00 88 1009.3
20260507004731 6 41 3.2 9.7 0.00 2.39 0.00 88 1009.3
20260507004532 6 327 3.2 9.7 0.00 2.39 0.00 88 1009.3
20260507004331 6 50 3.2 12.9 0.00 2.41 0.00 88 1009.3
20260507004132 6 5 3.2 12.9 0.00 2.41 0.00 88 1009.3
20260507003928 6 5 3.2 12.9 0.00 2.41 0.00 88 1009.2
20260507003727 6 34 3.2 12.9 0.00 2.41 0.00 88 1009.2
20260507003527 6 37 3.2 12.9 0.00 2.41 0.00 88 1009.3
20260507003326 6 57 3.2 12.9 0.00 2.41 0.00 88 1009.2
20260507003123 6 63 3.2 12.9 0.00 2.41 0.00 88 1009.3
20260507002924 6 51 3.2 9.7 0.00 2.41 0.00 88 1009.2
20260507002723 6 93 3.2 16.1 0.00 2.41 0.00 88 1009.3
20260507002523 6 38 4.8 16.1 0.00 2.41 0.00 87 1009.3
20260507002322 6 26 3.2 16.1 0.00 2.41 0.00 87 1009.2
20260507002121 6 28 3.2 16.1 0.00 2.41 0.00 87 1009.3
20260507001922 6 30 3.2 16.1 0.00 2.41 0.00 88 1009.3
20260507001721 6 61 3.2 17.7 0.00 2.41 0.00 87 1009.2
20260507001522 6 325 3.2 17.7 0.00 2.41 0.00 88 1009.2
20260507001321 6 326 3.2 17.7 0.00 2.41 0.00 87 1009.3
20260507001121 6 69 3.2 17.7 0.00 2.41 0.00 87 1009.3
20260507000919 6 113 3.2 17.7 0.00 2.41 0.00 87 1009.3
20260507000720 6 63 3.2 12.9 0.00 2.41 0.00 87 1009.3
20260507000519 6 57 3.2 11.3 0.00 2.41 0.00 87 1009.3
20260507000317 6 41 3.2 12.9 0.00 2.41 0.00 87 1009.4
20260507000117 6 38 4.8 19.3 0.00 2.41 0.00 87 1009.3
20260506235915 6 66 4.8 19.3 0.00 2.41 0.00 87 1009.3
20260506235713 6 66 6.4 19.3 0.00 2.41 0.00 87 1009.4
20260506235514 6 74 6.4 19.3 0.00 2.41 0.00 87 1009.4
20260506235315 6 49 6.4 19.3 0.00 2.41 0.00 87 1009.4
20260506235114 6 57 6.4 19.3 0.00 2.41 0.00 87 1009.3
20260506234912 6 67 8.0 16.1 0.00 2.41 0.00 87 1009.2
20260506234706 6 5 8.0 16.1 0.00 2.41 0.00 87 1009.3
20260506234506 6 91 8.0 16.1 0.00 2.41 0.00 87 1009.2
20260506234305 6 50 6.4 16.1 0.00 2.41 0.00 87 1009.3
20260506234106 6 39 8.0 16.1 0.00 2.41 0.00 87 1009.3
20260506233906 6 21 6.4 16.1 0.00 2.41 0.00 87 1009.3
20260506233709 6 57 6.4 16.1 0.00 2.41 0.00 87 1009.4
20260506233504 6 30 6.4 17.7 0.00 2.41 0.00 87 1009.3
20260506233303 6 71 4.8 17.7 0.00 2.41 0.00 87 1009.4
20260506233104 6 71 4.8 17.7 0.00 2.41 0.00 87 1009.4
20260506232904 6 355 4.8 17.7 0.00 2.41 0.00 88 1009.4
20260506232705 6 53 4.8 19.3 0.00 2.41 0.00 87 1009.5
20260506232503 6 101 6.4 19.3 0.00 2.41 0.00 88 1009.4
20260506232306 6 34 6.4 19.3 0.00 2.41 0.00 87 1009.4
20260506232117 6 59 8.0 19.3 0.00 2.41 0.00 87 1009.4
20260506231904 6 38 8.0 19.3 0.00 2.41 0.00 87 1009.4
20260506231704 6 78 8.0 19.3 0.00 2.41 0.00 88 1009.4
20260506231503 6 53 8.0 24.1 0.00 2.41 0.00 88 1009.3
20260506231316 6 25 6.4 24.1 0.00 2.41 0.00 88 1009.3
20260506231104 6 42 6.4 24.1 0.00 2.41 0.00 88 1009.3
20260506230904 6 351 6.4 24.1 0.00 2.41 0.00 88 1009.3
20260506230703 7 74 6.4 24.1 0.00 2.41 0.00 88 1009.3
20260506230503 7 21 6.4 16.1 0.00 2.41 0.00 88 1009.3
20260506230304 7 11 6.4 16.1 0.00 2.41 0.00 88 1009.2
20260506230104 7 86 6.4 16.1 0.00 2.41 0.00 88 1009.2
20260506225904 7 42 6.4 17.7 0.00 2.41 0.00 88 1009.1
20260506225703 7 35 6.4 17.7 0.00 2.41 0.00 88 1009.1
20260506225504 7 33 6.4 17.7 0.00 2.41 0.00 88 1009.1
20260506225305 7 56 6.4 17.7 0.00 2.41 0.00 88 1009.1
20260506225103 7 5 6.4 17.7 0.00 2.41 0.00 88 1009.1
20260506224903 7 86 6.4 17.7 0.00 2.41 0.00 88 1009.1
20260506224704 7 323 6.4 17.7 0.00 2.41 0.00 88 1009.1
20260506224504 7 32 4.8 17.7 0.00 2.41 0.00 88 1009.1
20260506224304 7 30 4.8 17.7 0.00 2.41 0.00 88 1009.1
20260506224103 7 74 4.8 17.7 0.00 2.41 0.00 88 1009.0
20260506223903 7 17 4.8 17.7 0.00 2.41 0.00 88 1009.0
20260506223704 7 5 4.8 12.9 0.00 2.41 0.00 88 1008.9
20260506223504 7 79 4.8 14.5 0.00 2.41 0.00 88 1008.8
20260506223303 7 57 6.4 14.5 0.00 2.41 0.00 89 1008.9
20260506223103 7 23 6.4 16.1 0.00 2.41 0.00 89 1008.9
20260506222904 7 69 4.8 16.1 0.00 2.41 0.00 89 1008.9
20260506222703 7 355 4.8 16.1 0.00 2.41 0.00 88 1008.9
20260506222517 7 25 4.8 16.1 0.00 2.41 0.00 88 1008.9
20260506222306 7 72 4.8 16.1 0.00 2.41 0.00 88 1008.9
20260506222104 7 69 4.8 12.9 0.00 2.41 0.00 88 1008.8
20260506221904 7 323 4.8 16.1 0.00 2.41 0.00 88 1008.9
20260506221703 7 51 4.8 16.1 0.00 2.41 0.00 88 1008.9
20260506221502 7 17 4.8 16.1 0.00 2.41 0.00 88 1009.0
20260506221301 7 9 4.8 16.1 0.00 2.41 0.00 88 1008.9
20260506221101 7 0 4.8 16.1 0.00 2.41 0.00 88 1008.9
20260506220901 8 34 4.8 16.1 0.00 2.41 0.00 88 1009.1
20260506220701 8 10 4.8 16.1 0.00 2.41 0.00 88 1008.9
20260506220501 8 40 4.8 16.1 0.00 2.41 0.00 88 1008.9
20260506220301 8 350 4.8 16.1 0.00 2.41 0.00 88 1008.9
20260506220109 8 36 4.8 16.1 0.00 2.41 0.00 88 1008.9
20260506215859 8 325 4.8 16.1 0.00 2.41 2.41 88 1008.9
20260506215700 8 63 4.8 16.1 0.00 2.41 2.41 88 1008.9
20260506215459 8 342 6.4 16.1 0.00 2.41 2.41 88 1008.9
20260506215300 8 71 6.4 16.1 0.00 2.41 2.41 88 1009.0
20260506215059 8 28 4.8 19.3 0.00 2.41 2.41 88 1008.9
20260506214900 8 76 4.8 19.3 0.00 2.41 2.41 88 1008.8
20260506214659 8 13 4.8 19.3 0.00 2.41 2.41 88 1008.8
20260506214459 8 74 4.8 19.3 0.00 2.41 2.41 88 1008.8
20260506214300 8 84 4.8 19.3 0.00 2.41 2.41 88 1008.7
20260506214100 8 346 4.8 14.5 0.00 2.41 2.41 88 1008.8
20260506213900 8 42 4.8 14.5 0.00 2.41 2.41 88 1008.8
20260506213659 8 58 6.4 14.5 0.00 2.41 2.41 88 1008.8
20260506213459 8 46 4.8 16.1 0.00 2.41 2.41 88 1008.7
20260506213300 8 58 6.4 16.1 0.00 2.41 2.41 88 1008.7
20260506213059 9 52 6.4 17.7 0.00 2.41 2.41 88 1008.6
20260506212900 9 355 6.4 17.7 0.00 2.41 2.41 88 1008.7
20260506212659 9 24 6.4 17.7 0.00 2.41 2.41 88 1008.7
20260506212459 9 72 6.4 17.7 0.00 2.41 2.41 88 1008.8
20260506212300 9 24 4.8 17.7 0.00 2.41 2.41 88 1008.8
20260506212100 9 34 4.8 14.5 0.00 2.41 2.41 88 1008.6
20260506211859 9 46 3.2 14.5 0.00 2.41 2.41 88 1008.6
20260506211700 9 19 3.2 12.9 0.00 2.41 2.41 88 1008.6
20260506211455 9 355 3.2 16.1 0.00 2.41 2.41 89 1008.6
20260506211255 9 38 4.8 16.1 0.00 2.41 2.41 89 1008.6
20260506211056 9 61 4.8 16.1 0.00 2.41 2.41 89 1008.6
20260506210853 9 5 4.8 16.1 0.00 2.41 2.41 89 1008.5
20260506210652 9 80 3.2 16.1 0.00 2.41 2.41 89 1008.5
20260506210452 9 54 3.2 12.9 0.00 2.41 2.41 89 1008.5
20260506210251 9 272 3.2 12.9 0.00 2.41 2.41 89 1008.6
20260506210051 9 347 3.2 12.9 0.00 2.41 2.41 89 1008.5
20260506205852 9 13 3.2 12.9 0.00 2.41 2.41 89 1008.4
20260506205652 9 340 3.2 12.9 0.00 2.41 2.41 89 1008.5
20260506205451 9 20 3.2 12.9 0.00 2.41 2.41 89 1008.5
20260506205251 9 61 3.2 12.9 0.00 2.41 2.41 90 1008.4
20260506205052 9 0 3.2 12.9 0.00 2.41 2.41 90 1008.4
20260506204851 9 355 3.2 12.9 0.00 2.41 2.41 90 1008.3
20260506204652 9 350 3.2 12.9 0.00 2.41 2.41 89 1008.3
20260506204450 9 15 1.6 12.9 0.00 2.41 2.41 89 1008.4
20260506204247 9 9 1.6 12.9 0.00 2.41 2.41 89 1008.4
20260506204048 10 33 1.6 8.0 0.00 2.41 2.41 90 1008.4
20260506203846 10 42 1.6 8.0 0.00 2.41 2.41 90 1008.3
20260506203645 10 45 3.2 12.9 0.00 2.41 2.41 90 1008.3
20260506203445 10 52 3.2 12.9 0.00 2.41 2.41 89 1008.3
20260506203245 10 52 3.2 12.9 0.00 2.41 2.41 89 1008.3
20260506203046 10 16 3.2 12.9 0.00 2.41 2.41 90 1008.4
20260506202846 10 65 3.2 12.9 0.00 2.41 2.41 89 1008.3
20260506202645 10 53 3.2 11.3 0.00 2.41 2.41 90 1008.4
20260506202445 10 15 3.2 6.4 0.00 2.41 2.41 90 1008.5
20260506202243 10 11 3.2 6.4 0.00 2.41 2.41 90 1008.4
20260506202042 10 342 3.2 6.4 0.00 2.41 2.41 90 1008.3
20260506201842 10 40 3.2 6.4 0.00 2.41 2.41 90 1008.4
20260506201641 10 32 3.2 6.4 0.00 2.41 2.41 90 1008.4
20260506201441 10 28 3.2 6.4 0.00 2.41 2.41 90 1008.4
20260506201241 10 31 3.2 6.4 0.00 2.41 2.41 90 1008.3
20260506201039 10 30 3.2 12.9 0.00 2.41 2.41 90 1008.3
20260506200840 10 30 3.2 12.9 0.00 2.41 2.41 90 1008.3
20260506200638 10 12 3.2 12.9 0.00 2.41 2.41 90 1008.2
20260506200435 10 355 3.2 12.9 0.00 2.41 2.41 90 1008.2
20260506200236 10 15 3.2 12.9 0.00 2.41 2.41 90 1008.1
20260506200033 10 50 3.2 9.7 0.00 2.41 2.41 90 1008.1
20260506195832 10 5 3.2 9.7 0.00 2.41 2.41 90 1007.9
20260506195631 10 11 3.2 8.0 0.00 2.41 2.41 91 1008.0
20260506195432 10 5 3.2 8.0 0.00 2.41 2.41 90 1007.9
20260506195232 10 49 1.6 8.0 0.00 2.41 2.41 90 1007.9
20260506195032 10 44 1.6 6.4 0.00 2.41 2.41 91 1007.9
20260506194831 10 81 1.6 6.4 0.00 2.41 2.41 91 1008.0
20260506194632 10 27 1.6 6.4 0.00 2.41 2.41 91 1008.0
20260506194432 10 24 3.2 6.4 0.00 2.41 2.41 90 1007.9
20260506194231 10 23 3.2 6.4 0.00 2.41 2.41 90 1008.0
20260506194031 10 44 1.6 6.4 0.00 2.41 2.41 90 1007.9
20260506193832 10 48 1.6 6.4 0.00 2.41 2.41 90 1007.9
20260506193632 10 37 1.6 6.4 0.00 2.41 2.41 90 1007.9
20260506193432 10 17 0.0 6.4 0.00 2.41 2.41 90 1007.9
20260506193232 10 57 0.0 4.8 0.00 2.41 2.41 90 1007.9
20260506193031 10 60 1.6 6.4 0.00 2.41 2.41 90 1008.0
20260506192830 10 60 1.6 6.4 0.00 2.41 2.41 90 1008.0
20260506192629 10 60 1.6 6.4 0.00 2.41 2.41 90 1007.9
20260506192429 10 60 1.6 6.4 0.00 2.41 2.41 90 1007.9
20260506192229 10 61 1.6 6.4 0.00 2.41 2.41 90 1007.9
20260506192029 10 10 1.6 9.7 0.00 2.41 2.41 90 1007.9
20260506191829 10 44 3.2 9.7 0.00 2.41 2.41 90 1007.8
20260506191627 10 40 3.2 11.3 0.00 2.41 2.41 90 1007.7
20260506191427 10 56 3.2 14.5 0.00 2.41 2.41 90 1007.7
20260506191225 10 57 4.8 14.5 0.00 2.41 2.41 90 1007.7
20260506191023 10 5 4.8 14.5 0.00 2.41 2.41 90 1007.7
20260506190824 10 355 4.8 14.5 0.00 2.41 2.41 90 1007.6
20260506190624 10 24 4.8 14.5 0.00 2.41 2.41 90 1007.5
20260506190424 10 25 4.8 14.5 0.00 2.41 2.41 90 1007.6
20260506190223 10 29 4.8 14.5 0.00 2.41 2.41 90 1007.4
20260506190023 10 28 4.8 14.5 0.00 2.41 2.41 90 1007.5
20260506185823 10 55 4.8 16.1 0.00 2.41 2.41 90 1007.4
20260506185623 10 90 4.8 16.1 0.00 2.41 2.41 90 1007.5
20260506185423 10 13 3.2 16.1 0.00 2.41 2.41 90 1007.5
20260506185221 10 40 3.2 16.1 0.00 2.41 2.41 90 1007.4
20260506185019 10 23 3.2 16.1 0.00 2.41 2.41 90 1007.5
20260506184820 10 34 3.2 8.0 0.00 2.41 2.41 90 1007.5
20260506184619 10 28 3.2 8.0 0.00 2.41 2.41 90 1007.5
20260506184417 10 15 3.2 8.0 0.00 2.41 2.41 90 1007.5
20260506184216 10 78 3.2 8.0 0.00 2.41 2.41 90 1007.6
20260506184016 10 347 3.2 8.0 0.00 2.41 2.41 90 1007.5
20260506183813 10 56 3.2 8.0 0.00 2.41 2.41 90 1007.5
20260506183611 10 21 3.2 12.9 0.00 2.41 2.41 90 1007.5
20260506183411 10 59 3.2 12.9 0.00 2.41 2.41 90 1007.4
20260506183211 10 341 3.2 12.9 0.00 2.41 2.41 90 1007.3
20260506183011 10 15 4.8 12.9 0.00 2.41 2.41 89 1007.3
20260506182806 10 54 3.2 12.9 0.00 2.41 2.41 89 1007.3
20260506182606 10 57 3.2 9.7 0.00 2.41 2.41 89 1007.3
20260506182406 10 16 3.2 9.7 0.00 2.41 2.41 89 1007.3
20260506182205 10 0 3.2 11.3 0.00 2.41 2.41 89 1007.3
20260506182017 10 330 3.2 11.3 0.00 2.41 2.41 89 1007.2
20260506181805 10 55 3.2 11.3 0.00 2.41 2.41 89 1007.2
20260506181605 10 355 3.2 11.3 0.00 2.41 2.41 89 1007.2
20260506181405 10 57 3.2 11.3 0.00 2.41 2.41 89 1007.2
20260506181206 10 355 3.2 11.3 0.00 2.41 2.41 90 1007.2
20260506181006 10 0 3.2 11.3 0.00 2.41 2.41 90 1007.2
20260506180806 10 355 4.8 11.3 0.00 2.41 2.41 90 1007.2
20260506180605 10 19 4.8 12.9 0.00 2.41 2.41 89 1007.1
20260506180405 10 44 4.8 12.9 0.00 2.41 2.41 89 1007.2
20260506180206 10 25 4.8 12.9 0.00 2.41 2.41 89 1007.1
20260506180006 10 341 4.8 12.9 0.00 2.41 2.41 89 1007.0
20260506175805 10 10 4.8 14.5 0.00 2.41 2.41 90 1007.1
20260506175604 10 48 4.8 14.5 0.00 2.41 2.41 90 1007.0
20260506175405 10 26 4.8 14.5 0.00 2.41 2.41 89 1007.0
20260506175205 10 34 4.8 14.5 0.00 2.41 2.41 90 1007.1
20260506175005 10 42 4.8 14.5 0.00 2.41 2.41 90 1007.1
20260506174805 10 19 4.8 11.3 0.00 2.41 2.41 90 1007.0
20260506174604 10 82 4.8 11.3 0.00 2.41 2.41 90 1007.1
20260506174405 10 88 4.8 11.3 0.00 2.41 2.41 90 1007.1
20260506174205 10 49 3.2 11.3 0.00 2.41 2.41 90 1007.0
20260506174004 10 78 3.2 11.3 0.00 2.41 2.41 90 1007.1
20260506173805 10 65 3.2 11.3 0.00 2.41 2.41 90 1007.1
20260506173606 10 322 3.2 8.0 0.00 2.41 2.41 90 1007.0
20260506173405 10 9 3.2 8.0 0.00 2.41 2.41 90 1007.0
20260506173204 10 25 4.8 8.0 0.00 2.41 2.41 90 1007.0
20260506173003 10 43 4.8 12.9 0.00 2.41 2.41 90 1007.0
20260506172803 10 48 4.8 12.9 0.00 2.41 2.41 90 1007.1
20260506172602 10 17 3.2 12.9 0.00 2.41 2.41 90 1007.1
20260506172402 10 50 3.2 12.9 0.00 2.41 2.41 90 1007.1